CZ-4 DEB, 26207

Orbit data source: Space-Track

CZ-4 DEB, 26207 is space debris in SSO originally from a launch on Thu, 14 Oct 1999 UTC launched from the Taiyaun Space Center, China (TSC). Debris objects in space refer to the collection of defunct objects orbiting the Earth. Examples of debris include non-operational satellites, rocket bodies, and fragments generated from explosions, collisions, or faulty payload assembly.

Loading next visibility...
Identifier
26207, 1999-057CV
Orbit
SSO
Country
Flag of CNCN / PRC
Related business
Manufacturer
Unknown
Mission
Spacecraft
Bus & Motor
Unknown
Mass
Unknown
Launch date (UTC)
1999-10-14 (26 years ago)
Launch vehicle
Unknown
Launch site
Taiyaun Space Center, China (TSC)
Object type
Payload
Rocket body
Debris
Shape & HBR
Unknown shape, 0.1 m
Radar Cross Section
Small (<0.1 m²)

Expand to show TLE details & history
Last TLE update: 21 hours ago

TLE from 21 hours ago
0 CZ-4 DEB
1 26207U 99057CV  25349.83795044  .00008993  00000-0  10850-2 0  9995
2 26207  98.3868  92.5476 0062231 284.0622 194.0513 14.82662318356459
Epoch: 2025-12-15T20:06Z
TLE epoch observation values (Epoch: 2025-12-15T20:06:38.918Z)
Latitude
61.02144°
Longitude
-98.49175°
Altitude
673.623 km
Speed
7.503 km/s
True Right ascension
19h 11m 36s
True Declination
60° 52' 25"
Sunlit
Object was in daylight at epoch
Visualization orbit readout
Latitude
Unknown
Longitude
Unknown
Altitude
Unknown
Speed
Unknown
Apparent Right ascension
Unknown
Apparent Declination
Unknown
Sunlit
N/A
Visualization observer readout
Local Sidereal Time
15:48:25
Azimuth
Unknown
Elevation
Unknown
Doppler factor
Unknown
Orbital elements
Apogee altitude
661.53 km
Perigee altitude
574.455 km
Semi-major axis
6,996.13 km
Eccentricity
0.00622
Inclination
98.3868°
RAAN
92.5476°
Arg. of periapsis
284.0622°
True anomaly
193.87946°
Mean anomaly
194.0513°
Eccentric anomaly
193.96525°
Mean motion
3.709 °/min
Orbital period
97.06 mins
BSTAR
0.001085
Loading maneuver chart data...
Computing Atmospheric mass density...

Documentation

Showing up to 5 results
|